Back to catalog

ARIANE 5 R/B

AliveMEO
NORAD 43568·ROCKET BODY·🇫🇷 France

Launched Jul 25, 2018 from Guiana Space Centre

Loading…

Next Passes (next 24 hours)

TLE

FreshSource: Space-Track

Epoch: Sep 13, 2026, 01:37 UTC

1 43568U 18060E   26256.06762898 -.00000099  00000-0  00000-0 0  9997
2 43568  56.9490 336.3851 0005041 263.4778  96.5194  1.73227707 51508

Track ARIANE 5 R/B in real time with AllMySat

Download on the App Store